Theta_e
304 304 304 303 304 306 306 307 307 307 306 304 305 306 307 307 306 306 306 305 305 306 306 307 307 307 306 306 306 303 301 305 308 310 311 311 312 312 312 311 311 308 306 308 308 308 308 307 307 307 306 307 308 309 315 316 317 322 323 325 326 322 321 318 316 315 314 317 320 323 329 329 331 333 333 332 331 336 339 336 334 331 325 322 321 325 336 342
304 304 304 303 304 305 306 306 307 306 305 305 305 305 306 306 305 305 305 305 305 305 306 306 306 307 306 306 305 302 303 305 307 310 309 309 311 311 311 309 308 306 307 308 307 308 308 307 307 308 307 308 310 312 315 314 315 320 321 319 318 317 315 314 314 314 317 321 322 322 328 329 330 334 331 332 334 336 340 338 335 332 326 320 318 322 328 336
303 303 304 304 304 305 306 306 306 306 305 306 306 305 306 306 306 305 304 304 305 305 306 306 306 306 306 306 304 302 305 306 307 308 307 308 309 309 308 307 306 306 308 307 307 308 308 307 308 307 307 308 309 313 315 315 316 317 319 316 313 312 312 312 312 321 328 328 328 327 327 330 329 331 330 332 336 331 329 328 328 327 322 317 315 317 319 324
303 303 303 304 304 304 305 305 306 305 305 306 307 306 306 306 306 306 305 304 304 305 306 306 306 305 306 305 303 303 305 307 308 307 305 307 307 307 306 304 304 306 308 307 308 309 309 308 308 307 308 307 308 313 314 316 318 315 315 316 314 311 313 314 316 328 332 329 329 328 327 331 327 324 324 331 338 328 319 315 316 317 314 312 312 314 315 315
303 303 303 303 303 304 304 305 305 305 305 306 306 306 306 306 306 306 306 305 304 304 305 305 305 305 305 304 303 304 307 310 308 305 305 305 306 306 305 304 303 305 307 308 308 309 309 308 308 309 307 305 306 310 311 312 316 316 313 312 313 313 314 316 321 329 330 328 329 327 329 331 326 320 317 325 334 325 315 311 310 310 309 309 310 312 312 311
303 303 303 303 303 303 303 304 304 305 305 305 306 306 306 306 306 306 306 306 305 304 305 305 304 305 304 302 304 306 308 310 307 304 304 304 305 305 305 304 304 304 306 307 308 308 309 309 309 309 307 305 304 306 308 310 314 316 315 312 313 313 314 315 320 327 327 328 330 330 331 330 327 321 313 315 318 313 309 309 309 308 307 308 308 308 309 308
303 303 303 302 303 303 303 303 304 304 304 305 306 306 306 306 306 307 306 305 305 305 305 304 304 305 302 303 306 306 307 307 304 303 304 303 304 305 305 305 304 303 304 306 307 307 309 309 308 309 308 307 306 304 307 311 313 316 316 315 313 312 314 316 318 323 325 328 330 332 333 329 329 326 315 310 310 308 308 308 308 308 307 306 306 305 305 305
302 303 302 302 302 302 303 303 303 304 304 304 305 306 306 306 306 306 306 305 305 305 305 304 305 304 303 305 307 307 307 305 302 302 303 303 303 304 305 305 303 303 304 304 305 306 308 309 310 310 309 308 308 307 308 310 310 311 313 313 311 309 313 318 318 320 322 325 328 331 330 324 324 322 313 310 310 307 307 307 308 308 306 305 304 303 304 303
302 302 302 302 302 302 303 303 303 304 304 304 304 305 305 306 305 305 305 304 305 305 304 304 304 303 304 306 306 307 305 302 301 301 302 302 303 304 305 305 303 302 303 303 304 306 308 309 310 311 310 310 310 309 309 310 309 309 310 311 311 310 312 316 318 319 320 321 325 329 327 321 319 320 314 309 308 307 306 306 306 306 305 304 303 302 302 302
302 302 302 302 302 302 302 302 303 304 304 304 304 305 305 305 305 305 305 305 305 305 304 304 303 303 305 305 307 307 302 300 302 301 302 302 303 305 304 304 302 302 302 302 303 305 307 309 309 310 310 309 309 309 308 309 309 308 309 310 311 311 312 313 315 318 318 318 321 327 329 324 322 325 318 309 307 307 306 305 305 305 304 303 302 301 301 301
302 302 302 301 302 302 302 302 303 303 304 305 305 305 305 305 305 306 305 305 305 305 304 303 302 303 305 305 307 306 300 300 301 301 302 302 303 305 304 304 302 302 302 303 304 304 305 307 308 309 310 309 308 309 309 309 310 309 309 309 309 310 311 311 313 315 316 317 320 325 329 325 323 325 316 308 308 307 306 305 304 303 302 302 301 300 300 300
302 301 302 301 301 302 302 303 303 303 304 304 304 304 304 304 305 306 305 305 305 305 304 302 302 304 305 305 306 304 300 301 301 301 302 302 303 304 304 304 303 302 302 303 304 304 305 305 306 309 310 309 309 310 310 310 311 309 309 309 307 307 308 309 311 313 313 314 319 325 327 327 324 319 311 308 308 307 306 305 303 302 301 301 301 299 299 299
301 301 301 301 301 301 302 302 303 303 303 304 304 304 304 304 305 306 304 305 305 305 303 301 302 304 305 306 305 302 300 301 301 302 303 303 303 303 304 304 303 303 302 303 304 304 304 305 306 307 309 308 308 309 309 309 310 309 309 309 307 305 305 306 309 313 312 311 318 325 326 327 322 312 308 308 308 307 307 305 303 302 301 300 300 299 298 298
301 301 301 301 301 301 302 302 302 303 303 304 304 304 304 303 304 305 304 304 304 304 303 301 302 304 305 306 304 301 300 302 303 303 303 303 303 303 304 304 304 304 303 304 304 304 304 305 305 306 307 307 307 307 306 306 308 309 310 309 308 306 306 305 307 312 313 311 318 325 325 324 316 309 308 308 308 308 307 305 304 302 301 300 299 299 298 297
301 301 301 301 301 301 302 302 302 303 303 303 304 304 303 302 304 304 303 304 304 303 303 303 304 304 305 306 303 300 302 304 303 303 303 302 303 303 304 304 304 304 304 305 305 305 305 305 306 306 307 307 307 306 305 304 305 308 309 309 309 309 308 306 306 310 312 313 318 324 325 321 312 307 307 306 308 308 306 305 304 303 301 300 299 299 298 297
301 301 301 301 301 301 302 302 302 302 303 303 304 305 303 302 304 303 302 304 304 303 303 305 305 304 306 306 302 301 304 304 302 303 303 303 303 303 304 303 304 304 305 305 305 305 305 305 306 306 306 306 306 304 303 303 303 306 307 308 309 308 309 307 306 309 312 319 324 323 324 319 310 306 305 306 307 307 306 305 304 302 302 301 299 299 298 298
301 301 301 301 301 301 302 302 302 302 303 303 303 304 302 302 304 303 302 303 303 303 303 305 305 304 305 304 302 303 304 303 302 303 303 302 302 303 303 303 303 304 304 305 305 306 306 305 306 305 304 303 304 304 304 303 302 304 306 307 307 307 308 307 309 312 312 321 326 324 321 313 307 306 305 305 306 307 305 304 303 301 302 301 299 298 297 297
301 301 301 301 301 301 301 302 302 303 303 303 302 302 302 303 303 303 304 304 304 304 304 304 304 306 307 304 303 304 303 303 303 303 302 302 303 303 303 303 304 303 304 304 305 306 306 305 305 304 303 302 302 302 304 304 304 305 306 306 306 306 306 306 312 315 313 317 321 322 318 308 305 305 304 304 304 306 305 303 301 301 301 301 300 299 297 296
301 301 301 301 301 301 302 302 302 303 302 301 302 303 304 304 303 303 304 304 305 306 306 306 306 307 308 306 305 304 303 303 303 303 303 304 304 303 303 303 303 303 304 303 304 305 305 304 304 303 302 302 302 301 302 303 304 304 304 304 305 305 306 310 313 313 312 314 313 313 312 307 305 304 303 303 303 304 306 303 301 301 301 300 300 299 298 297
301 301 301 301 301 301 302 302 302 302 302 301 302 305 305 305 305 306 304 304 305 306 306 306 305 306 307 305 305 303 302 303 304 304 305 304 304 303 304 304 303 303 303 302 303 305 304 303 303 302 301 301 302 302 301 303 303 303 302 303 303 303 306 312 313 311 312 313 310 308 307 305 303 301 300 302 302 303 304 303 302 302 301 300 301 299 297 296
301 301 301 301 301 301 302 302 302 302 301 301 303 305 305 304 305 306 304 303 305 305 305 305 304 305 305 304 304 302 302 304 305 305 305 303 303 304 304 304 303 303 303 302 303 303 303 303 302 302 302 301 301 302 302 303 303 302 302 301 302 302 305 310 312 311 311 314 311 307 306 306 302 300 299 299 301 303 303 303 302 301 301 300 300 299 297 296
301 301 301 301 301 301 301 301 302 301 301 303 304 305 304 303 303 303 302 303 304 305 305 304 304 304 304 304 303 302 303 304 304 305 304 303 303 303 303 303 303 303 303 303 303 303 303 302 302 301 301 301 301 302 302 302 302 302 301 301 302 303 304 307 312 311 310 312 312 309 309 309 304 300 299 298 300 302 301 301 302 302 301 300 299 298 297 295
301 301 301 301 301 301 301 301 300 300 303 304 303 304 304 303 302 302 302 303 305 305 305 304 304 304 304 305 304 303 303 304 304 304 304 303 303 303 303 303 303 303 303 303 303 303 303 302 301 301 301 301 301 301 302 301 301 302 301 300 300 302 303 305 310 310 308 310 310 309 311 311 305 300 299 298 299 300 299 299 300 302 301 300 298 297 297 296
301 301 301 301 301 301 301 300 300 303 304 302 302 303 303 302 302 302 302 304 305 305 305 304 304 304 305 305 304 303 303 303 303 303 303 303 303 302 303 303 303 303 303 303 303 303 303 302 302 302 301 301 301 302 301 300 300 301 302 301 300 302 304 307 310 309 309 309 308 309 310 310 309 305 302 299 298 298 299 298 298 300 302 300 298 297 296 296
301 301 301 301 301 302 301 301 303 305 303 302 303 303 302 302 302 302 302 305 306 305 304 304 304 304 304 304 304 303 303 303 303 303 303 303 302 302 303 303 303 303 303 303 303 302 302 302 302 302 301 301 302 302 301 301 301 300 301 302 301 302 305 307 309 308 309 309 308 310 310 310 312 311 306 301 298 298 298 298 298 298 300 301 299 297 297 296
301 301 301 301 301 301 302 303 304 302 301 303 304 302 302 302 302 301 302 307 308 306 304 305 305 305 304 304 304 303 304 304 303 303 303 303 303 303 303 303 302 303 303 302 302 302 302 302 302 302 301 302 302 302 302 302 301 300 301 303 304 303 304 307 307 307 308 308 308 310 309 309 312 311 306 301 299 298 298 298 298 298 299 300 300 299 297 296
301 301 301 301 302 301 303 304 302 301 303 304 303 302 302 302 302 301 304 310 309 305 305 306 306 305 303 303 303 303 304 304 303 303 303 303 303 302 302 303 302 302 302 301 301 302 302 302 302 302 301 302 302 302 302 302 301 301 304 306 305 304 305 306 306 307 307 306 308 310 309 309 310 309 306 302 299 299 298 298 298 299 298 299 300 299 298 297
301 301 301 302 301 301 302 304 303 303 305 303 302 302 301 302 301 301 307 311 306 303 305 306 306 305 303 304 303 302 304 304 303 303 302 303 303 302 302 302 302 302 302 301 301 301 302 302 302 302 302 302 302 301 301 302 302 302 305 306 305 305 306 305 306 307 306 305 306 309 310 310 310 308 303 300 301 300 299 298 298 298 298 299 300 299 299 298
301 301 302 301 301 300 301 302 303 305 303 302 302 301 301 301 301 303 309 307 303 303 304 305 305 304 303 303 303 302 302 303 303 303 302 302 303 302 302 302 302 303 302 302 302 302 302 302 302 303 303 302 301 301 302 302 302 302 303 305 305 306 306 306 307 307 306 306 306 307 310 310 310 309 304 301 303 302 301 300 298 298 298 299 299 299 298 298
301 301 302 301 301 303 303 302 303 304 302 302 302 301 301 301 302 307 308 303 302 304 303 304 305 303 302 302 302 303 304 303 303 303 302 302 302 302 302 302 302 302 302 302 302 302 303 302 301 302 303 302 301 302 303 302 303 303 303 304 306 306 305 306 307 307 307 306 305 305 309 310 309 310 308 305 305 305 304 303 300 298 298 298 298 298 298 297
301 301 301 301 303 304 304 304 303 302 301 302 302 301 301 302 306 308 304 302 304 304 304 304 303 302 301 300 301 303 303 303 302 302 302 302 302 302 302 303 302 302 303 303 302 302 303 302 301 301 302 302 302 303 303 304 303 304 304 304 305 306 305 306 306 307 306 306 305 305 308 310 309 309 310 308 307 306 306 306 303 299 299 298 298 298 298 298
301 301 301 301 303 302 303 304 301 300 301 302 302 302 303 307 309 304 302 304 305 304 303 303 302 302 300 300 302 302 301 302 302 302 303 302 302 302 303 303 303 303 304 303 303 303 303 302 301 301 302 303 303 303 304 304 304 304 305 304 305 305 305 306 306 306 306 304 304 306 307 309 309 308 309 308 307 306 306 307 305 300 299 298 297 298 299 299
300 300 301 302 302 302 302 302 300 301 302 301 302 302 305 309 307 303 303 305 305 302 302 303 302 301 300 302 303 301 301 303 302 302 303 303 303 303 303 304 304 304 304 303 304 304 304 304 303 302 302 303 303 303 304 304 304 304 305 305 305 304 304 305 304 304 305 304 304 307 308 309 308 308 308 307 307 308 307 307 305 301 299 298 297 298 299 298
299 300 302 302 300 301 301 300 300 302 302 301 302 304 307 307 304 304 305 304 303 302 302 303 301 300 302 303 303 301 302 303 302 302 303 303 304 304 304 304 303 303 303 303 304 303 302 303 304 303 303 303 303 303 304 304 304 304 304 305 305 304 304 305 304 304 306 305 306 308 309 309 310 311 312 309 308 308 308 308 306 301 299 298 297 297 297 296
299 300 301 301 300 300 299 299 301 301 302 301 303 306 309 306 303 305 305 303 302 302 302 302 301 302 304 303 302 302 301 303 303 302 303 304 304 305 304 304 303 302 303 303 303 302 302 303 304 303 304 304 303 303 303 304 305 305 304 305 306 305 306 307 306 306 307 307 308 310 311 311 311 312 312 309 309 309 309 309 306 302 300 298 297 296 296 295
300 299 300 302 301 300 298 299 301 301 301 302 305 309 309 305 304 304 304 303 302 301 301 303 302 303 304 303 302 303 301 301 302 302 303 304 304 304 303 303 303 303 303 304 304 303 303 304 304 303 304 305 305 303 303 305 306 306 305 305 306 307 307 307 306 307 309 309 309 311 312 312 311 311 310 308 309 309 309 307 305 302 300 298 297 296 295 294
301 300 301 302 300 298 298 299 300 301 301 303 307 310 306 303 303 303 303 302 301 300 301 304 303 302 302 302 303 303 301 301 302 302 304 305 304 304 302 301 302 302 303 303 304 305 304 306 306 304 305 306 305 305 305 306 306 306 305 306 307 307 307 307 307 307 308 309 310 312 313 313 313 312 309 308 309 309 307 305 303 301 299 298 297 296 295 294
303 301 301 300 298 298 299 299 300 301 302 303 307 308 305 303 302 302 302 300 300 300 301 303 303 301 301 301 302 301 300 302 302 302 304 305 305 304 301 301 301 302 302 301 302 304 304 307 307 305 305 306 305 305 306 306 306 306 306 306 308 308 307 308 307 306 308 310 313 314 314 313 313 312 310 308 307 307 305 303 302 300 298 298 297 296 295 294
304 303 302 298 296 298 299 299 300 301 302 305 308 308 305 302 301 300 300 299 299 300 301 303 301 300 301 301 302 301 300 301 300 300 303 303 304 304 300 300 301 301 301 301 301 303 304 307 308 306 306 306 306 305 306 307 307 306 306 306 307 308 308 308 308 308 311 313 314 315 315 315 314 312 311 309 306 306 306 304 302 300 299 298 297 296 295 294
304 304 302 296 296 299 299 299 300 302 304 305 307 306 301 301 301 298 298 299 299 299 301 302 300 299 301 301 301 301 300 299 298 299 302 301 302 304 301 299 300 300 300 300 301 302 303 306 308 308 307 307 307 306 305 307 308 307 306 305 306 308 308 309 309 310 311 312 314 315 315 316 314 309 308 308 306 305 305 304 303 301 299 298 297 296 295 294
304 304 302 296 297 299 298 300 302 302 304 304 304 305 301 300 300 299 298 297 298 299 299 300 300 300 300 300 300 301 300 300 299 299 300 300 301 303 302 299 298 300 300 300 301 302 303 306 308 309 308 307 308 307 306 307 309 309 308 307 307 308 309 311 311 311 311 312 314 314 314 316 311 305 304 305 306 306 305 304 304 301 300 299 298 297 295 295
303 303 300 296 297 298 298 302 302 299 302 304 302 301 300 299 298 298 297 296 296 297 298 298 298 298 298 299 300 300 299 299 300 300 301 300 300 301 302 298 297 299 301 301 303 303 303 305 307 308 308 308 308 307 307 308 309 309 309 308 309 309 310 311 312 313 313 312 313 312 314 317 309 302 302 302 304 306 306 304 304 302 300 300 299 297 296 295
304 302 297 295 297 297 299 305 304 301 303 302 297 297 298 298 298 297 296 296 296 296 297 297 297 297 297 298 297 297 298 299 300 301 301 300 299 300 299 298 298 298 299 302 304 303 303 305 307 309 309 309 307 306 305 305 306 308 308 308 308 309 310 311 311 312 311 312 314 313 315 318 310 302 302 303 305 307 306 305 304 302 300 300 299 298 297 296
303 300 297 296 296 297 301 305 305 304 305 302 298 298 297 297 298 297 296 297 297 296 296 296 297 297 297 296 295 294 296 299 300 300 299 298 298 298 297 297 297 297 299 303 304 303 305 306 307 309 311 311 310 309 308 306 305 307 308 308 308 308 309 310 310 311 311 312 313 314 316 316 310 304 304 305 307 307 305 305 304 302 301 301 299 298 297 295
301 300 299 296 296 298 301 301 300 301 304 303 301 299 299 298 298 297 297 297 297 296 295 295 295 295 294 295 295 294 295 297 298 298 297 296 298 297 296 297 297 296 298 301 301 302 305 306 307 309 311 312 313 312 311 309 307 307 308 308 308 308 308 310 311 312 313 313 312 314 316 313 309 306 305 306 307 306 305 305 303 302 302 300 298 298 297 295
301 302 301 298 297 299 299 298 297 298 301 302 301 299 298 298 298 297 297 297 296 295 295 294 294 293 293 294 295 295 295 295 295 296 295 295 297 298 297 296 296 296 296 297 298 300 303 304 305 307 308 309 310 310 308 307 307 309 309 309 309 308 308 309 311 312 314 315 314 313 312 312 312 310 307 306 307 307 305 304 303 302 301 300 298 298 297 296
301 303 304 302 301 300 300 299 297 297 298 299 299 299 298 297 297 296 296 296 295 294 294 294 294 294 294 294 294 296 296 295 295 295 295 294 295 297 297 296 295 296 296 296 298 300 302 304 304 305 306 306 307 307 306 305 305 307 308 309 310 309 308 308 310 312 313 315 317 314 311 312 312 311 310 309 307 306 306 304 303 302 301 300 299 298 297 297
301 304 303 301 302 304 304 302 300 299 299 298 297 299 299 298 297 296 296 295 292 292 294 294 294 294 295 296 295 295 296 297 295 295 295 295 294 296 297 295 295 296 296 297 300 299 301 304 305 304 305 305 305 305 305 304 303 304 305 306 309 310 309 308 309 310 311 314 315 314 313 313 311 309 310 311 309 306 305 304 303 302 302 300 299 298 298 297
301 302 300 297 300 303 302 301 300 299 300 299 298 299 299 298 298 297 296 294 292 292 294 295 296 295 295 296 295 294 296 298 297 296 295 295 295 295 296 296 296 296 296 297 299 298 300 303 304 303 304 304 305 305 304 303 301 301 302 303 305 308 309 309 309 309 310 311 312 312 312 311 309 308 308 309 309 307 305 303 303 302 302 301 300 299 298 298
301 302 301 298 299 299 298 298 299 298 299 299 299 300 299 298 299 298 296 296 296 295 293 294 296 297 296 296 295 294 296 297 297 297 296 296 296 296 296 296 296 295 295 297 298 297 299 303 303 303 304 304 304 305 304 302 300 299 299 300 302 305 307 307 308 309 309 310 310 310 310 309 308 308 308 308 308 308 305 304 302 301 301 301 300 299 299 298
298 297 299 300 301 300 298 296 296 297 299 299 300 301 301 300 300 298 297 297 297 297 294 294 296 297 297 297 295 295 296 297 297 296 295 295 296 295 296 296 294 294 295 296 297 297 298 301 303 302 304 305 304 303 302 300 299 299 298 299 300 302 304 306 308 309 309 309 309 310 311 311 309 308 307 306 307 307 305 304 303 301 301 301 301 300 299 298
296 294 295 299 302 303 300 297 296 298 300 301 301 301 302 301 299 297 298 298 297 297 296 295 296 296 296 297 297 295 296 296 294 294 294 294 294 294 295 294 294 294 294 294 295 296 296 299 302 302 305 306 301 300 300 299 301 304 304 303 301 300 302 304 306 309 308 307 309 310 312 312 309 308 309 308 306 306 305 304 303 302 301 300 300 300 300 299
Wind_Speed
10 10 9 8 9 10 10 10 10 11 11 10 9 11 13 12 12 12 12 13 13 12 12 13 14 14 15 16 17 18 14 14 11 6 9 6 8 10 10 11 11 12 12 13 12 12 12 9 10 12 10 5 3 2 1 1 2 2 2 4 6 7 7 6 6 6 6 6 8 7 5 7 7 5 2 1 3 8 12 12 11 12 13 12 14 19 11 16
10 10 9 8 9 10 10 10 10 10 11 10 10 11 12 12 12 13 13 13 13 11 11 12 14 13 15 16 17 17 14 15 10 3 8 5 6 9 10 11 9 10 12 11 10 11 9 8 11 11 6 2 2 2 1 1 2 3 3 5 7 7 6 6 8 8 7 4 8 7 7 6 6 9 4 4 6 8 10 9 10 11 11 14 20 24 19 11
10 9 9 9 9 10 11 11 10 10 10 10 10 10 11 12 12 12 12 13 12 10 11 12 13 13 14 15 16 15 14 13 6 3 8 5 5 8 9 10 8 9 11 9 8 8 7 7 9 8 4 2 2 3 2 2 3 4 4 5 7 7 7 9 10 6 6 7 9 8 5 3 3 5 3 4 5 6 6 5 7 7 8 11 14 19 21 18
10 9 9 9 9 10 11 11 11 11 10 11 11 10 11 12 11 12 12 12 12 10 11 11 13 13 13 15 15 14 13 9 1 6 9 5 5 7 8 10 9 9 9 7 6 6 7 8 7 5 3 3 4 3 2 2 2 3 5 6 6 7 7 9 7 5 8 7 8 11 3 5 8 8 5 1 6 6 5 6 7 6 7 8 9 12 16 17
10 9 9 9 9 9 10 11 12 11 11 12 11 11 10 11 11 11 11 11 12 11 11 12 12 13 14 14 13 12 9 4 3 7 8 5 6 7 8 10 11 11 10 8 7 6 6 6 5 3 2 2 4 3 4 5 4 3 6 9 8 10 7 6 5 9 7 7 6 11 5 4 6 8 10 7 5 3 3 6 6 6 7 7 8 10 12 14
9 9 9 9 9 9 9 10 12 11 12 12 11 11 11 11 11 12 12 11 11 10 11 12 11 13 13 13 11 8 6 1 4 6 7 7 8 8 7 10 12 12 10 8 7 5 5 5 3 2 1 2 4 4 4 4 3 3 6 8 9 11 9 9 6 8 7 7 5 7 4 4 7 7 10 12 8 5 4 5 6 7 7 8 9 10 11 11
9 9 9 9 9 8 9 10 11 11 11 11 12 12 12 12 12 13 13 11 10 10 11 11 11 12 12 13 9 5 4 3 5 5 7 9 9 8 7 8 11 11 9 7 7 5 4 4 3 2 2 3 4 5 5 3 3 3 5 7 9 11 9 9 8 6 6 6 6 5 5 4 5 5 7 12 9 7 6 6 6 7 8 10 11 11 11 11
9 9 9 9 9 8 9 10 10 10 10 11 12 13 13 13 13 14 13 11 9 9 10 10 10 9 9 11 8 3 3 3 6 6 8 10 8 7 8 7 9 10 8 7 8 6 5 4 3 3 2 3 3 4 5 5 4 4 5 8 9 10 8 7 8 6 6 6 5 4 8 6 6 7 7 8 7 6 6 6 7 7 9 10 10 10 10 11
9 9 9 9 9 9 9 9 9 10 10 10 12 13 13 14 15 14 13 10 8 8 8 9 8 7 7 8 6 2 1 4 6 7 8 9 7 7 8 7 9 10 8 6 8 7 5 4 5 4 3 4 4 5 6 4 2 2 5 7 9 10 8 7 7 7 6 6 6 1 7 6 5 6 6 5 5 6 6 7 6 6 9 9 8 10 10 10
10 9 9 9 9 9 9 9 9 10 10 11 12 13 13 14 15 14 12 9 7 7 7 8 8 7 7 7 4 2 4 6 6 7 7 8 8 8 7 7 9 10 9 7 7 8 6 5 6 5 3 4 4 3 4 3 4 7 8 8 9 11 8 7 7 7 6 7 8 4 4 5 3 2 2 4 5 5 6 7 6 7 8 8 8 8 10 11
9 9 9 9 9 9 9 9 10 10 10 11 11 12 13 14 14 12 10 8 6 6 7 9 8 6 7 6 4 2 5 6 6 7 7 6 7 7 7 7 8 9 9 7 5 7 7 7 8 5 2 2 4 4 4 2 5 8 9 9 9 9 8 7 7 6 5 6 9 6 3 4 2 2 3 5 4 4 6 6 6 7 7 7 8 7 9 10
9 9 9 9 9 9 9 10 10 11 10 11 11 11 13 12 11 11 9 6 6 7 8 11 8 5 8 6 1 3 5 5 5 6 5 5 5 5 6 6 7 8 8 8 6 7 7 8 8 5 3 4 4 5 2 4 5 7 7 7 8 9 9 9 8 7 6 6 7 4 2 4 3 4 6 6 5 5 5 5 6 6 6 6 6 6 7 8
9 8 8 8 9 9 10 10 10 11 11 12 11 10 11 10 9 10 8 5 6 7 9 10 6 5 8 2 1 2 4 4 3 4 4 4 4 3 4 4 5 6 6 8 7 7 7 7 7 5 5 5 3 4 5 5 4 6 6 5 6 7 8 9 8 9 9 8 6 4 5 6 4 7 6 5 6 6 5 4 4 4 4 4 5 5 6 8
9 8 8 8 9 9 9 10 10 11 11 11 11 10 10 9 7 8 7 6 7 8 9 8 3 5 6 1 2 3 5 4 2 4 6 6 5 3 3 2 3 4 5 6 6 6 6 7 6 5 4 2 2 6 7 5 4 5 6 5 4 4 6 7 8 10 11 9 8 7 7 5 6 6 5 4 6 6 5 4 4 4 4 4 4 4 5 7
9 9 9 9 9 9 9 9 10 10 11 11 11 10 10 7 5 5 5 4 6 8 9 7 4 5 4 1 2 3 5 3 4 5 6 7 7 5 3 2 3 4 4 5 6 5 6 6 5 4 2 2 2 4 4 4 3 4 5 4 4 5 6 7 8 12 12 7 10 11 6 2 5 5 4 2 4 5 4 4 4 4 3 3 3 4 4 5
10 9 9 9 9 9 9 9 10 11 11 11 12 11 9 7 5 5 4 4 6 7 7 7 4 4 4 1 1 1 2 2 5 5 4 5 7 8 7 5 4 3 3 4 5 6 5 5 3 2 2 1 2 3 3 3 3 4 4 4 4 5 5 6 7 10 13 6 6 12 6 3 5 5 4 2 3 4 5 4 4 4 3 3 3 3 3 3
10 10 10 10 9 10 10 10 10 11 11 13 12 10 9 7 7 6 4 3 5 5 5 6 6 4 2 2 1 1 3 3 4 5 6 5 5 7 7 6 5 3 3 4 4 5 4 3 2 2 1 2 3 3 2 3 3 3 4 4 5 6 6 6 4 3 6 7 6 10 6 4 4 6 4 2 2 4 4 4 4 3 2 3 3 3 3 2
11 10 10 10 10 10 10 10 11 11 12 13 10 9 10 9 8 6 5 4 4 6 5 5 4 3 0 2 2 2 4 5 7 8 8 6 4 5 6 6 6 5 4 4 4 3 2 2 2 2 2 2 3 3 3 3 1 2 3 3 4 6 8 7 1 6 7 0 3 3 3 5 5 6 4 2 2 4 4 4 3 3 3 3 3 3 3 2
11 11 10 10 10 10 10 11 11 11 13 11 9 10 10 8 6 4 5 3 2 3 2 1 2 3 2 3 3 3 6 9 9 6 4 3 3 5 6 6 5 4 4 2 3 4 2 1 2 2 2 3 4 4 6 6 3 6 6 5 6 5 5 3 3 6 9 6 5 4 3 5 4 4 3 2 2 3 4 4 3 3 3 3 2 3 3 3
11 11 11 10 10 10 10 10 10 11 11 10 11 11 7 4 2 2 3 4 3 2 2 3 3 3 4 4 5 7 8 6 4 0 2 3 4 5 5 5 4 3 3 3 2 1 1 2 2 3 4 5 4 4 7 5 5 6 5 4 6 7 3 2 3 4 6 5 3 4 4 2 1 1 2 1 2 4 5 4 3 3 3 3 3 3 3 3
11 11 11 10 10 11 10 10 10 10 8 8 11 9 2 3 2 1 2 4 3 3 1 2 2 3 5 4 5 7 5 3 2 3 4 5 4 3 2 4 3 2 4 5 2 1 1 2 4 5 7 4 3 5 4 3 5 4 3 4 5 6 5 0 3 4 5 3 1 4 2 2 4 3 3 3 2 5 5 5 5 5 4 4 4 3 3 3
11 11 11 10 10 10 10 10 9 7 6 6 9 6 4 4 2 2 2 3 1 4 3 1 0 3 4 1 3 4 2 4 4 3 5 6 2 1 1 2 3 3 3 4 2 1 2 4 5 6 7 4 3 5 4 3 3 3 3 3 5 5 5 2 4 5 4 2 1 2 3 4 6 6 5 4 4 3 2 3 4 6 6 5 5 5 4 4
11 11 11 10 10 9 10 8 5 5 4 5 7 5 4 3 2 3 2 3 2 3 3 2 1 2 1 3 3 3 3 4 5 2 5 5 2 1 3 2 3 3 3 3 2 3 3 2 3 6 6 3 4 6 4 4 3 2 3 3 4 5 5 3 3 5 4 1 1 3 4 4 4 3 5 6 5 3 2 3 5 4 6 7 7 6 6 6
11 10 10 10 9 9 8 6 3 2 3 4 4 2 2 2 3 3 3 3 1 1 2 2 1 1 2 2 2 3 3 3 4 4 5 3 2 2 3 3 4 3 4 4 4 5 5 5 4 6 7 5 5 6 5 4 3 4 5 4 5 6 4 2 1 1 2 1 1 2 5 4 4 6 7 5 5 5 4 3 4 5 5 6 7 6 6 7
10 10 9 9 8 8 7 6 3 2 5 4 1 0 2 2 2 3 3 2 1 1 1 2 2 1 2 2 1 1 2 2 2 4 4 3 3 2 1 2 2 2 3 5 4 4 6 7 5 3 4 5 5 5 5 4 3 4 5 6 8 8 4 1 1 1 3 3 3 4 3 4 5 9 8 5 6 7 6 6 6 5 6 6 6 6 7 7
10 9 8 8 7 6 6 4 0 1 5 2 2 1 1 0 1 3 3 2 1 1 1 2 3 1 1 2 0 3 2 1 1 3 4 3 3 2 2 1 1 1 3 4 2 2 4 4 4 4 4 5 5 6 6 4 3 3 3 4 5 6 5 3 3 1 1 4 2 4 3 4 1 5 7 6 7 7 7 7 9 7 7 8 7 6 6 7
10 9 7 7 6 4 4 3 3 4 3 2 3 1 1 0 1 2 2 1 0 2 2 2 2 1 1 4 3 4 2 1 1 2 4 3 1 1 1 0 1 0 0 1 1 1 2 3 4 4 5 5 4 5 5 5 4 3 2 6 5 4 4 4 4 3 4 4 2 3 4 5 4 4 2 6 5 5 7 9 10 9 10 10 9 8 7 7
10 8 7 6 5 4 4 5 6 4 2 3 1 0 1 1 0 2 1 1 1 2 2 2 2 2 2 3 1 1 2 1 0 1 2 1 1 1 1 2 1 1 1 1 1 1 1 2 3 3 4 4 4 5 5 5 5 2 5 6 4 4 5 4 3 4 4 4 4 4 4 3 6 2 3 4 5 7 11 13 13 12 12 11 11 10 8 7
9 7 6 5 3 2 3 5 5 3 2 1 0 0 1 1 0 1 1 1 1 0 1 3 3 1 1 2 2 2 3 2 2 1 2 1 1 1 1 2 1 2 2 2 3 2 1 1 3 4 3 3 4 5 4 5 5 2 4 5 4 4 5 4 4 4 4 4 6 7 5 3 6 3 3 3 5 9 12 13 12 12 11 11 11 10 9 8
9 7 6 4 2 2 3 3 3 3 1 1 0 0 2 1 0 0 1 1 1 1 0 2 3 1 4 2 1 3 2 1 1 2 2 1 1 2 1 1 1 1 1 3 6 5 2 1 2 3 4 4 4 5 5 6 4 2 2 3 4 4 4 3 4 3 3 4 8 10 8 6 6 4 5 5 7 10 11 9 9 11 11 11 10 10 10 9
8 6 5 3 2 4 4 1 2 1 0 1 1 2 3 2 1 1 0 1 1 0 0 2 1 2 5 3 0 2 2 2 0 1 1 1 1 2 2 1 1 1 2 3 5 6 4 2 2 4 5 4 4 4 5 6 4 1 1 2 3 3 3 2 3 3 3 5 8 11 10 9 8 5 5 8 11 14 12 10 13 15 15 13 11 11 11 10
7 6 4 4 5 5 4 1 1 1 1 1 3 4 2 2 1 1 1 1 1 1 0 2 1 2 3 2 1 2 1 2 1 1 1 2 2 3 4 2 1 1 2 3 2 2 4 5 4 4 4 4 3 4 3 3 3 2 2 2 2 2 2 2 3 3 4 7 9 9 9 8 8 9 11 12 12 13 13 12 15 19 18 16 14 13 11 10
5 3 2 3 4 4 5 3 0 1 2 1 4 3 1 1 1 1 1 1 1 1 0 1 1 1 0 1 2 2 0 2 2 3 2 2 2 4 5 2 1 0 0 1 1 2 1 1 3 4 3 4 5 3 2 2 3 4 4 3 3 2 2 3 4 3 4 7 10 8 7 5 6 9 15 18 17 15 13 12 14 18 20 19 17 15 11 10
2 2 3 4 4 4 6 3 2 2 2 3 4 2 1 1 1 1 1 1 1 1 1 1 1 2 2 1 1 2 1 2 2 3 3 3 2 3 4 3 3 1 0 1 2 2 2 2 3 5 2 5 8 7 4 1 2 5 5 4 3 2 2 2 2 3 3 5 6 5 5 5 5 5 10 13 13 14 13 11 12 14 15 15 14 14 13 12
4 3 2 3 2 3 3 3 4 3 3 3 3 2 1 1 1 1 1 1 1 1 1 2 2 2 2 1 1 1 1 2 3 3 3 3 2 1 1 2 4 4 2 2 1 2 3 2 4 5 2 4 7 8 6 1 1 4 4 4 4 2 1 2 3 4 4 5 4 3 3 5 4 2 3 4 4 7 10 9 11 12 12 11 11 13 14 12
5 2 1 1 2 3 2 3 5 3 3 3 2 2 2 0 0 1 0 0 1 1 3 1 2 1 1 1 0 1 1 1 2 3 2 2 1 0 1 1 3 5 4 2 2 0 2 2 3 4 2 3 6 5 4 3 1 1 2 3 2 0 1 2 4 4 4 5 4 5 5 5 3 3 4 3 2 6 8 9 13 13 14 15 13 13 14 13
4 2 2 4 3 3 2 4 4 3 3 2 1 2 0 1 1 1 2 1 1 1 2 2 1 2 0 1 2 2 3 2 2 3 1 2 2 2 2 1 2 4 2 2 2 2 0 2 3 5 4 5 5 3 4 4 3 1 2 1 2 1 0 1 3 3 3 6 4 6 8 5 4 4 3 6 6 7 7 8 12 13 15 16 14 13 14 14
3 4 3 3 4 2 3 4 3 4 3 1 3 3 1 1 2 2 2 1 1 1 1 2 1 2 1 1 2 2 3 2 2 2 1 2 2 2 4 1 0 2 0 0 2 1 1 3 2 5 4 2 2 1 4 4 5 2 1 1 1 2 1 1 2 3 4 5 3 4 7 5 6 5 4 8 10 9 9 8 10 13 16 16 14 14 14 14
4 4 2 2 2 2 5 4 2 3 2 1 3 2 1 1 2 1 1 0 1 0 1 1 0 1 1 2 1 1 1 1 0 1 2 2 2 3 5 3 2 3 2 3 1 2 2 2 1 2 3 3 3 2 2 3 4 1 2 0 1 1 2 2 2 3 3 4 4 3 3 3 6 5 7 13 14 14 13 11 12 15 16 15 14 14 14 14
4 3 0 2 3 4 5 4 2 3 2 1 2 1 1 1 1 1 1 0 1 1 2 1 0 1 1 2 2 0 2 2 1 2 1 2 2 2 5 3 4 5 5 4 1 2 2 3 2 0 2 3 2 4 5 4 4 3 2 3 3 2 1 3 3 3 3 4 4 3 3 4 4 2 4 9 13 16 16 15 14 14 14 14 14 15 14 14
3 2 0 2 5 6 5 2 2 2 2 2 0 1 0 1 1 1 1 1 1 0 1 1 2 2 2 2 1 2 1 2 3 3 2 3 2 2 5 5 4 6 6 3 2 2 2 2 2 1 2 3 4 5 5 3 2 3 4 4 5 5 3 4 4 3 3 3 4 3 5 6 3 0 2 4 6 13 16 15 13 13 14 14 13 15 15 13
2 2 0 3 7 7 3 2 1 1 2 2 0 0 0 1 1 2 2 1 1 1 2 0 2 2 2 2 1 0 2 3 3 3 3 3 2 2 5 5 4 5 6 2 2 4 3 2 3 4 4 3 2 1 1 1 3 2 3 3 4 4 4 5 4 1 1 4 5 3 4 5 3 2 3 7 5 8 12 11 10 10 12 13 12 14 15 13
3 1 1 4 8 6 1 2 2 1 1 1 2 1 2 1 2 2 2 2 1 2 1 2 3 3 2 1 2 1 1 2 4 4 2 3 2 2 5 6 5 5 4 2 1 3 3 2 3 5 3 1 1 2 3 3 3 1 4 5 5 5 5 5 5 4 3 4 5 3 3 4 3 4 4 7 6 4 9 9 9 9 9 11 12 13 13 13
2 1 2 3 7 4 2 2 1 1 1 1 3 2 2 2 3 3 3 4 4 2 2 3 3 3 1 1 1 2 1 0 3 3 2 2 1 2 6 8 6 4 4 2 1 2 2 2 2 3 3 1 1 1 1 1 1 3 4 5 7 9 8 6 6 4 3 5 6 3 3 4 3 5 5 6 6 5 7 7 9 10 10 10 11 12 12 12
1 1 2 2 5 3 2 1 1 2 1 1 3 2 3 2 3 3 2 2 4 3 2 2 1 1 1 2 1 2 3 3 3 1 2 2 1 0 3 5 5 4 3 1 2 1 2 3 3 2 3 3 2 1 2 2 2 3 4 6 9 10 10 6 3 2 3 5 4 3 4 5 5 5 5 6 4 4 5 5 8 10 10 11 11 12 12 12
0 1 1 2 3 3 2 1 1 2 1 1 2 2 3 2 2 2 1 2 2 2 1 2 1 1 1 2 2 3 4 5 4 1 3 2 2 1 3 3 3 4 3 2 0 2 1 3 5 5 5 6 6 5 3 2 2 4 5 7 9 9 10 7 2 3 4 3 5 4 4 5 6 3 2 4 2 4 5 6 6 7 9 11 12 12 13 12
1 1 2 2 1 2 3 2 3 3 1 1 1 1 3 3 2 2 2 2 1 2 2 2 3 2 3 3 3 4 3 3 4 4 3 4 3 0 3 3 3 4 3 2 3 2 2 4 6 9 11 11 11 11 6 4 6 8 7 8 9 9 9 8 7 8 3 3 5 6 1 5 6 2 4 6 6 5 6 7 7 7 8 9 10 12 13 13
1 0 1 2 1 2 2 3 5 4 2 2 1 1 2 4 4 3 2 1 1 1 2 3 5 7 6 4 1 2 3 2 4 4 3 5 3 1 2 3 3 4 3 2 4 2 2 5 5 7 11 11 10 12 9 7 7 8 8 10 9 8 10 12 13 12 5 2 8 7 4 8 9 5 3 7 9 8 8 8 7 7 7 8 10 11 13 14
1 1 0 2 0 1 1 2 4 3 3 3 2 3 3 5 6 3 2 3 1 4 4 3 5 8 9 7 3 2 2 1 3 4 2 3 2 2 2 1 2 5 4 3 4 2 2 4 4 5 8 9 11 13 11 9 7 8 10 12 11 9 11 13 12 11 8 9 12 10 10 12 11 7 5 3 6 6 6 6 7 8 9 9 11 12 13 14
1 1 2 1 1 1 2 2 3 2 3 4 3 4 4 5 6 3 2 4 3 3 6 5 6 6 8 7 6 6 4 1 2 3 2 2 2 2 1 0 1 3 3 3 3 3 3 2 3 2 5 8 8 8 8 9 8 10 12 13 12 11 11 12 11 9 8 11 12 9 10 12 7 2 1 3 5 6 7 7 8 9 10 10 11 12 13 15
3 2 1 1 2 3 3 1 3 2 3 4 3 3 4 5 7 4 3 7 6 4 7 8 6 3 4 6 8 10 6 2 2 2 1 1 2 2 2 1 2 2 2 2 1 1 3 2 4 2 4 6 2 2 6 7 8 11 14 13 13 11 9 9 9 8 9 9 8 6 7 8 3 3 5 4 5 7 7 8 7 8 10 12 13 13 14 14
5 2 1 1 2 4 4 2 4 3 3 4 6 5 4 4 5 4 2 4 3 2 5 7 3 1 3 6 8 7 2 2 1 1 1 1 2 1 3 2 3 3 2 2 1 1 2 1 3 3 3 4 2 2 5 4 5 7 9 9 11 12 10 8 7 8 10 8 5 5 6 5 3 5 5 5 6 6 7 8 8 8 10 12 13 13 14 14
Wind_Direction
6 6 9 5 358 353 356 0 2 7 3 1 358 354 1 2 358 354 346 340 332 329 331 336 337 334 336 336 335 336 346 345 334 36 57 24 355 347 342 337 330 343 354 351 348 348 351 353 358 349 323 291 218 240 359 19 276 265 222 228 234 231 225 235 248 249 260 251 256 260 164 170 164 122 157 193 135 120 101 89 83 74 58 39 24 14 56 141
5 4 6 0 353 352 355 357 360 4 3 2 359 354 356 356 354 351 348 345 339 335 332 333 335 332 335 332 332 338 347 337 314 70 51 353 346 351 347 344 338 354 351 344 352 352 351 347 345 339 320 288 208 179 78 139 204 240 231 233 232 234 242 245 255 267 289 297 283 266 172 201 198 150 163 191 162 131 117 101 85 73 41 19 16 20 38 87
4 1 359 355 349 347 351 355 357 359 357 354 353 353 351 350 354 351 347 347 345 341 335 333 334 332 332 325 327 339 340 326 298 65 32 351 334 343 351 351 344 352 339 333 345 341 342 329 327 329 314 290 248 185 169 172 184 237 240 240 237 242 260 261 262 284 342 352 329 308 185 173 18 109 169 178 121 86 97 70 64 65 25 7 5 12 28 54
2 359 355 352 349 346 347 352 354 354 347 344 346 349 351 347 348 351 346 347 346 340 336 333 333 332 327 320 326 341 330 309 290 47 21 354 341 346 352 353 352 352 335 329 325 314 323 316 315 320 307 287 258 212 213 215 191 218 227 243 253 249 255 269 289 14 6 348 343 321 257 117 46 44 14 79 106 74 66 33 35 53 27 7 5 11 22 42
358 356 354 351 350 347 344 347 348 348 341 340 344 345 350 346 342 346 344 344 343 338 336 329 330 330 322 320 330 340 322 288 66 32 10 352 354 351 354 2 360 349 331 318 311 306 310 307 304 288 264 263 257 221 216 227 227 246 241 254 273 272 275 292 341 37 360 332 344 322 319 106 75 49 19 27 101 99 60 37 33 47 38 18 14 22 28 36
354 353 352 349 346 344 342 342 343 342 336 335 341 340 341 343 340 340 341 341 336 335 334 328 329 323 320 330 335 326 305 358 56 12 358 358 355 349 357 3 353 342 328 320 320 318 314 309 295 270 257 267 272 259 239 229 238 262 255 260 271 277 287 294 326 27 356 333 332 324 352 75 91 74 41 50 73 81 71 56 48 49 43 36 34 35 37 40
350 349 350 347 343 342 341 340 340 340 334 331 338 340 337 339 337 336 337 334 328 329 329 331 328 320 330 344 339 286 259 60 48 3 356 354 350 352 357 352 345 340 336 343 342 339 335 317 299 309 305 271 281 273 274 334 332 290 276 280 286 287 293 299 320 4 345 323 319 355 25 19 79 95 65 64 71 77 73 63 63 59 50 45 41 40 40 40
346 346 347 345 343 341 339 339 340 339 333 327 333 339 336 335 334 333 333 329 327 326 329 333 324 328 348 343 335 277 230 42 17 357 355 346 351 360 353 350 346 341 342 352 344 343 329 316 355 356 288 267 336 326 315 340 319 279 281 290 295 290 297 324 332 333 321 307 306 36 62 36 61 90 76 70 70 71 71 66 68 62 53 49 42 39 39 37
342 342 341 340 341 338 335 337 338 339 333 327 331 336 335 334 332 330 331 327 324 326 332 331 320 341 352 320 314 308 64 42 359 351 348 340 356 355 347 358 354 343 344 349 345 344 332 352 25 6 324 300 326 339 324 325 297 308 316 305 301 295 308 333 322 313 311 296 284 24 89 87 99 96 70 73 84 78 74 64 62 62 56 49 45 41 39 38
339 339 336 333 334 335 335 333 333 335 334 331 333 335 334 334 333 331 330 323 322 330 330 326 324 341 341 317 300 298 57 40 355 348 343 338 352 347 351 3 352 344 344 344 352 0 358 10 4 336 328 291 280 295 295 289 303 326 327 310 300 299 308 312 304 312 310 291 275 263 111 113 134 116 71 95 108 99 81 65 57 61 60 53 50 45 40 41
335 335 334 329 328 330 331 331 331 331 333 334 333 334 334 335 336 335 327 320 326 326 317 328 340 338 321 312 301 350 44 20 343 343 338 338 347 347 357 356 347 347 342 336 357 12 0 358 347 312 279 305 301 277 267 313 323 316 311 302 293 287 282 268 267 283 292 289 277 266 127 120 100 58 105 120 117 108 86 72 62 56 60 58 54 51 44 42
332 328 328 327 324 324 325 328 330 329 332 333 329 331 334 335 340 338 326 325 333 320 314 327 342 332 304 292 303 25 20 355 343 347 340 337 335 336 344 340 342 346 337 329 350 10 352 346 343 308 298 348 320 262 274 4 335 301 297 293 290 285 273 255 239 234 235 254 266 261 148 191 182 98 113 129 119 109 100 84 70 61 58 58 58 56 50 43
329 326 324 323 321 321 321 325 328 328 329 329 328 330 332 333 341 340 331 330 321 309 316 324 333 318 299 290 86 5 1 355 351 5 3 340 314 312 326 328 335 338 332 325 338 354 340 340 337 312 320 337 309 297 325 338 300 275 269 255 275 282 266 248 229 210 211 230 235 203 215 216 149 113 121 132 134 128 120 100 77 74 65 58 61 61 57 46
326 323 320 318 318 319 319 322 325 325 325 324 324 326 326 326 335 340 335 330 305 298 317 323 314 297 291 78 62 25 47 48 31 23 5 340 315 285 286 297 323 334 331 320 324 332 327 330 319 295 290 261 279 323 321 303 271 266 259 234 238 264 264 247 216 195 199 218 203 192 235 221 121 116 134 134 152 151 132 118 98 89 79 66 66 64 67 55
326 321 317 317 314 314 317 319 320 321 321 319 318 319 319 319 325 331 330 322 298 304 322 313 289 287 285 91 60 43 63 56 40 30 1 347 333 316 315 327 334 337 323 312 321 322 315 316 303 286 291 212 254 305 293 269 252 246 258 246 218 236 261 264 236 199 190 208 196 193 226 186 128 124 131 135 173 163 132 130 121 104 100 89 77 70 73 67
325 319 317 315 312 313 314 315 317 318 318 316 315 312 310 308 301 308 314 296 291 313 323 308 312 308 293 47 83 50 50 34 37 23 355 353 332 331 347 330 296 292 298 301 311 306 297 301 287 283 322 295 242 257 257 277 256 219 233 251 254 250 253 257 243 196 181 187 200 205 208 99 128 126 116 131 179 167 132 133 129 108 116 112 92 76 70 67
324 319 315 312 312 314 313 315 316 317 318 315 311 307 308 297 277 292 319 310 296 300 297 297 317 312 292 47 55 347 19 23 18 336 310 314 312 323 324 299 284 287 289 274 274 284 273 266 257 232 239 245 264 264 249 260 253 236 225 232 253 259 269 262 231 172 194 190 192 214 199 89 111 126 118 124 172 181 143 135 136 116 127 122 107 97 76 55
322 319 316 313 312 313 313 316 316 318 320 315 314 315 313 298 276 281 298 300 284 266 256 264 286 289 328 30 6 11 2 332 321 307 295 291 281 297 294 293 312 303 279 258 235 241 232 212 253 261 235 212 248 261 243 241 248 346 323 288 281 256 261 276 309 14 346 139 122 249 180 114 121 126 114 111 162 202 168 138 128 127 135 121 118 122 103 83
320 319 318 313 312 312 313 315 315 321 321 321 331 318 300 286 269 255 260 260 248 250 263 274 294 299 320 7 32 14 337 313 305 300 307 318 272 270 274 282 305 290 279 279 178 176 212 243 243 261 266 230 224 220 236 261 354 13 345 320 320 298 265 307 27 22 6 23 45 22 81 113 120 111 93 108 156 218 192 144 132 156 150 133 140 135 122 114
320 319 315 312 312 312 312 314 315 321 323 336 341 317 287 277 264 204 225 230 219 228 303 332 333 301 303 359 12 349 338 305 283 261 49 336 299 277 250 238 264 254 262 271 190 132 349 279 249 240 245 239 251 266 248 267 3 9 337 312 303 304 302 32 48 29 25 25 43 64 77 106 122 33 338 316 181 205 205 179 187 193 176 183 179 152 132 122
321 317 314 313 312 310 310 311 313 319 331 351 340 321 330 6 344 26 313 263 214 150 186 309 339 294 292 332 350 352 355 268 265 62 25 327 300 282 197 182 235 232 232 243 218 43 359 250 256 258 265 280 338 335 315 335 13 352 305 304 292 289 290 286 76 37 38 47 124 121 132 215 205 221 277 298 243 207 206 205 207 196 186 200 196 189 169 133
320 316 315 313 310 311 309 309 313 326 351 352 327 325 32 34 8 18 333 283 203 131 148 205 276 263 254 235 23 5 322 286 302 50 15 332 275 250 77 151 234 252 255 253 214 221 247 241 258 268 281 317 330 308 325 335 332 317 290 293 289 285 286 303 58 29 27 48 217 186 219 229 200 199 211 230 239 233 238 246 232 200 187 198 201 198 187 170
320 316 315 312 311 311 305 309 328 342 359 344 323 340 37 47 10 351 294 273 272 147 152 160 227 270 187 132 62 3 313 329 327 6 19 336 280 312 324 260 260 284 289 276 238 251 255 245 304 327 323 318 290 277 281 286 266 240 247 264 278 282 285 305 22 16 24 59 303 304 284 243 180 197 223 216 221 239 255 280 288 241 192 189 195 195 191 189
320 317 314 312 312 309 307 316 332 313 302 307 315 351 26 25 348 323 278 270 282 150 119 114 182 345 59 103 57 354 327 339 321 353 28 342 311 338 311 288 288 286 275 271 262 265 271 273 306 343 337 315 293 276 255 252 257 233 225 229 258 274 293 334 48 15 2 344 229 314 300 270 190 209 231 211 201 220 221 233 277 264 216 186 176 184 194 195
320 316 313 313 310 309 310 305 285 256 278 289 277 141 352 357 347 315 283 264 230 146 105 142 170 91 112 127 91 358 338 349 340 7 19 346 337 338 314 326 294 284 301 294 287 273 273 278 281 284 298 294 286 283 259 230 254 254 227 223 236 246 264 326 241 255 341 297 210 170 259 271 200 212 224 182 181 206 204 207 221 231 228 207 182 184 191 190
318 315 311 309 306 306 305 295 19 306 287 298 85 77 32 350 336 321 284 241 181 152 145 185 176 168 159 112 21 249 250 21 60 23 2 354 9 340 308 343 269 329 353 331 309 267 271 288 293 269 260 267 264 271 269 251 256 266 274 283 263 245 237 244 265 282 283 273 233 159 228 277 264 240 226 173 184 207 196 207 213 205 213 210 196 194 187 185
318 313 307 304 302 299 303 327 1 327 296 97 86 72 103 185 313 314 280 170 251 230 177 161 144 166 140 77 19 287 288 54 138 41 2 351 17 19 293 307 128 213 322 346 323 287 297 296 287 267 247 252 253 254 262 262 249 235 356 354 340 306 263 235 237 235 242 272 295 173 219 265 276 273 216 152 176 225 219 219 215 202 204 204 197 195 189 184
315 309 305 300 286 257 272 310 319 322 18 89 81 92 100 39 330 272 264 131 288 262 162 142 133 185 192 136 101 359 20 10 237 55 51 15 291 168 216 243 262 321 295 242 260 295 329 337 330 299 258 242 242 247 248 247 249 276 4 355 342 320 305 283 249 236 253 278 274 222 200 249 258 257 70 129 185 237 234 224 218 207 199 197 197 196 194 188
314 309 301 289 279 268 278 295 298 318 35 98 53 83 130 76 35 247 276 235 238 110 142 157 155 167 231 196 170 90 52 27 16 11 91 99 277 229 235 254 269 336 327 257 256 280 282 358 342 316 270 245 260 273 267 252 243 264 335 334 331 310 301 294 266 251 260 255 258 241 191 217 264 228 136 157 208 237 235 226 218 209 201 195 192 188 188 188
311 302 290 284 324 326 289 264 250 268 337 111 74 268 185 178 291 297 310 265 158 114 175 149 144 48 12 359 140 93 89 100 23 336 343 66 246 255 253 293 309 277 272 252 254 260 252 3 323 267 239 257 295 305 295 285 270 216 272 316 317 278 252 260 249 240 271 253 248 242 200 196 253 232 177 189 210 217 220 218 203 199 202 195 187 184 182 177
307 290 268 255 275 284 277 228 148 212 191 113 184 228 230 225 248 11 334 133 115 268 268 124 129 33 38 44 99 86 108 151 153 359 324 188 175 245 238 188 137 215 236 247 251 247 231 228 246 240 242 252 282 285 271 274 273 223 241 291 306 269 218 249 242 207 246 252 243 234 204 199 232 239 208 210 215 210 208 203 188 188 196 191 185 187 182 173
293 271 234 221 255 281 287 282 91 78 122 145 223 233 254 253 202 246 246 81 62 291 30 116 104 32 43 71 204 261 182 166 174 134 211 248 193 209 234 217 169 200 221 215 243 252 228 220 207 230 261 237 244 268 249 246 239 211 214 218 252 249 195 224 223 203 224 240 240 219 194 204 232 246 242 233 229 219 212 206 189 183 186 187 186 186 180 173
273 258 191 212 246 261 264 258 226 93 123 201 249 245 267 291 249 207 247 354 308 262 133 136 91 37 325 147 188 235 215 163 176 159 187 246 236 214 223 222 158 132 209 185 264 266 272 303 180 200 254 215 207 227 202 199 212 208 199 183 192 210 222 229 228 235 232 245 247 210 184 220 238 238 235 233 235 226 213 206 191 184 184 185 183 179 173 167
205 131 172 235 251 234 236 216 136 126 160 232 254 255 319 301 218 174 243 261 226 269 219 152 22 313 239 214 221 214 206 222 197 172 189 213 237 230 218 202 180 177 318 247 281 246 249 324 190 185 185 174 193 222 229 132 176 216 202 194 231 243 244 242 239 250 253 275 265 190 167 211 213 222 225 232 239 222 205 192 180 180 183 182 175 170 167 166
145 133 185 257 292 270 239 175 143 157 213 248 257 255 284 297 166 160 253 197 114 325 282 109 54 302 243 201 303 257 185 218 201 199 223 224 241 284 256 198 190 209 235 225 257 212 214 253 194 184 144 150 193 225 234 202 280 237 187 190 252 268 233 258 275 270 273 297 280 196 213 224 207 236 227 254 271 192 178 163 158 165 167 168 172 171 169 169
131 132 149 186 255 296 264 171 134 144 230 258 258 249 249 227 65 64 21 226 107 342 298 324 107 241 244 156 198 265 198 193 206 217 226 214 210 44 303 312 194 211 233 256 303 334 228 261 173 182 206 210 219 234 230 208 218 269 181 190 253 254 137 268 277 276 267 278 256 203 241 252 237 259 197 172 143 151 153 152 156 161 160 166 178 178 172 170
148 213 188 184 237 291 227 161 127 160 237 256 246 267 212 98 321 13 54 40 91 83 302 298 184 173 265 198 200 204 195 181 197 215 200 191 192 157 187 279 232 216 236 298 321 36 338 283 192 189 217 222 224 266 279 234 158 119 228 243 339 339 348 258 278 292 265 266 257 203 223 227 213 248 183 162 173 162 162 163 159 159 162 172 182 180 175 171
199 234 209 198 240 272 172 153 144 205 240 235 243 258 159 101 327 19 73 98 94 101 260 282 242 148 113 237 240 185 185 168 173 210 190 191 221 170 169 186 226 225 219 197 298 349 303 286 219 201 217 163 128 285 282 235 176 160 272 292 19 306 275 176 229 275 263 261 268 222 232 229 215 225 178 178 192 182 175 172 167 169 173 178 181 179 175 170
239 237 224 189 198 172 158 151 171 230 242 229 254 264 128 333 326 58 65 84 102 340 266 275 144 134 138 211 277 2 247 226 92 262 225 194 232 180 171 170 151 181 179 168 249 318 288 275 278 220 202 135 116 188 235 206 174 155 336 284 174 246 268 239 223 265 274 273 288 264 242 240 242 232 187 192 196 185 178 179 183 185 183 181 177 177 177 173
237 232 226 138 147 150 149 150 190 231 235 235 274 313 113 288 269 112 64 53 152 217 289 340 105 198 251 228 221 297 284 266 254 277 247 189 221 191 177 175 161 163 159 165 233 331 309 261 273 227 144 147 177 196 202 204 179 172 217 230 226 213 242 264 248 239 251 274 294 297 290 265 255 246 210 211 198 186 183 184 187 188 185 183 177 175 178 176
232 237 254 136 147 145 142 169 205 211 245 248 116 102 172 283 240 138 115 61 337 172 68 354 278 276 323 284 218 164 241 259 229 247 254 202 213 207 180 176 168 154 142 156 216 210 221 265 289 269 184 211 224 197 204 222 171 172 198 214 226 224 237 269 258 218 214 253 271 282 298 287 266 268 301 280 219 193 188 184 182 180 179 181 177 174 175 176
238 239 144 146 157 149 147 236 194 140 263 268 334 92 239 269 210 160 143 124 284 222 132 125 261 265 270 275 350 37 252 259 223 222 243 222 223 210 176 162 145 146 147 181 221 177 188 274 291 264 232 230 245 136 98 72 109 164 218 204 216 226 226 247 266 289 273 273 268 253 264 275 297 12 336 316 288 195 178 174 173 172 174 175 172 169 169 170
222 206 85 147 161 155 243 248 169 158 213 284 307 215 179 230 195 166 167 168 201 216 197 213 199 195 231 307 21 325 254 254 237 234 242 237 239 131 146 143 129 140 160 224 213 157 171 217 253 264 259 246 350 35 36 46 93 212 236 210 214 231 222 235 269 308 323 286 272 263 254 261 309 355 335 318 325 136 150 159 156 156 166 167 164 164 163 163
233 121 86 154 163 158 276 260 226 273 177 8 321 213 184 242 209 185 195 194 189 193 224 231 189 187 211 80 96 261 300 234 240 261 288 261 286 101 141 151 153 177 203 228 101 137 188 215 225 272 283 269 300 337 344 332 195 226 240 213 213 227 232 246 266 274 271 260 252 259 277 270 302 341 346 339 356 86 131 152 150 151 161 160 155 158 159 157
295 98 81 138 170 190 270 301 320 313 98 57 309 243 202 223 209 204 207 206 206 203 238 262 122 150 192 120 138 277 284 222 214 340 340 272 277 98 177 167 172 210 243 20 53 115 218 234 219 238 267 267 275 256 224 238 218 212 232 221 213 218 220 226 264 276 247 259 263 256 273 289 314 340 350 345 358 98 127 143 150 157 160 154 153 158 160 159
212 245 153 138 178 223 250 156 193 264 213 181 272 243 207 204 192 192 198 233 217 182 245 278 115 128 206 169 208 255 237 215 214 305 319 262 256 221 185 178 196 237 291 5 317 246 267 257 230 221 235 246 262 263 208 177 236 239 235 225 212 211 210 207 250 262 236 294 305 249 243 304 316 321 303 283 249 165 154 151 157 169 164 157 159 162 163 164
176 250 201 162 168 228 234 204 189 207 178 153 241 208 205 215 183 154 199 230 170 157 234 241 185 195 196 173 217 238 198 192 221 244 246 230 254 298 168 195 224 232 267 272 216 215 272 263 230 220 234 242 255 267 243 193 236 250 252 242 217 201 195 194 218 232 217 1 292 237 221 324 300 219 191 219 211 187 182 172 167 172 167 160 159 161 165 166
192 253 131 111 137 218 230 201 190 197 166 129 201 193 199 214 195 186 212 182 57 204 218 223 215 221 219 199 221 230 179 189 228 236 223 210 231 269 191 233 232 197 187 192 192 191 276 267 225 214 240 244 247 260 246 209 228 243 246 253 238 206 194 200 221 233 225 234 247 254 328 308 282 277 248 213 196 190 188 174 160 155 156 159 162 167 172 173
164 273 35 75 243 229 99 133 169 204 197 178 214 215 206 219 213 205 153 124 186 223 202 226 231 217 218 219 218 223 212 213 237 237 218 196 228 240 220 279 233 203 198 195 192 191 245 271 246 226 255 259 248 250 238 215 230 244 240 245 243 227 215 216 229 235 230 240 252 274 302 288 274 279 275 210 175 172 163 150 147 150 157 163 168 175 181 182
181 245 167 121 267 206 104 142 170 203 207 190 217 220 199 216 215 193 138 163 197 196 180 221 247 216 205 205 200 223 238 281 269 240 197 186 232 234 215 19 181 204 232 224 201 178 184 276 304 250 270 276 256 238 221 210 226 244 244 239 233 236 240 237 243 242 233 249 260 270 280 280 281 283 103 97 106 120 134 150 158 162 167 170 175 183 188 189
240 324 138 150 242 172 140 174 175 188 217 190 200 214 202 217 211 193 198 200 196 170 173 206 246 237 188 195 213 235 256 318 300 261 177 225 238 190 185 192 151 162 220 234 236 175 185 277 318 324 292 285 267 212 231 230 238 252 259 249 226 220 230 231 231 222 212 232 254 257 256 263 258 106 97 107 126 135 152 169 169 168 175 179 184 190 192 194
216 302 313 208 252 181 156 162 173 189 225 194 195 205 198 202 183 159 209 213 187 162 180 193 216 192 194 217 225 233 262 23 357 348 39 316 286 213 204 188 155 167 192 173 175 202 169 232 314 332 301 280 297 296 266 279 298 273 259 242 213 206 219 234 239 228 212 209 226 234 238 237 188 140 132 150 162 165 179 184 178 176 180 187 193 193 192 194